DT_LEITURA;HR_LEITURA;MED-PressaoAtm[hPa];VAL-TempExt[oC];VAL-UmidExt[%UR];VAL-TempInt[oC];VAL-UmidInt[%UR];Dir-Vento[grau];Vel-Vento[m/s];Precipitação[mm/h]
03/05/2026;00:04:00;1020,7;16,5;71;19,5;71;;;0,0
03/05/2026;00:09:00;1020,7;16,5;70;19,4;71;;;0,0
03/05/2026;00:14:00;1020,7;16,4;70;19,4;71;;;0,0
03/05/2026;00:19:00;1020,7;16,4;69;19,4;71;;;0,0
03/05/2026;00:24:00;1020,7;16,4;69;19,3;71;;;0,0
03/05/2026;00:29:00;1020,8;16,4;68;19,3;71;;;0,0
03/05/2026;00:34:00;1020,7;16,4;68;19,2;71;;;0,0
03/05/2026;00:39:00;1020,7;16,4;68;19,2;71;;;0,0
03/05/2026;00:44:00;1020,8;16,4;67;19,1;71;;;0,0
03/05/2026;00:49:00;1020,8;16,5;68;19,0;71;;;0,0
03/05/2026;00:54:00;1020,9;16,4;67;19,0;71;;;0,0
03/05/2026;00:59:00;1020,9;16,4;67;18,9;71;;;0,0
03/05/2026;01:04:00;1020,9;16,3;67;18,8;71;;;0,0
03/05/2026;01:09:00;1021,0;16,3;68;18,7;71;;;0,0
03/05/2026;01:14:00;1021,0;16,3;68;18,7;71;;;0,0
03/05/2026;01:19:00;1021,0;16,2;67;18,7;71;;;0,0
03/05/2026;01:24:00;1021,1;16,3;67;18,6;71;;;0,0
03/05/2026;01:29:00;1021,1;16,3;67;18,6;71;;;0,0
03/05/2026;01:34:00;1021,1;16,2;67;18,5;71;;;0,0
03/05/2026;01:39:00;1021,1;16,2;68;18,5;71;;;0,0
03/05/2026;01:44:00;1021,1;16,1;68;18,4;71;;;0,0
03/05/2026;01:49:00;1021,2;15,9;68;18,3;71;;;0,0
03/05/2026;01:54:00;1021,2;15,8;68;18,2;71;;;0,0
03/05/2026;01:59:00;1021,2;15,7;69;18,1;71;;;0,0
03/05/2026;02:04:00;1021,1;15,6;69;18,0;71;;;0,0
03/05/2026;02:09:00;1021,1;15,5;69;17,9;71;;;0,0
03/05/2026;02:14:00;1021,1;15,4;69;17,9;71;;;0,0
03/05/2026;02:19:00;1021,0;15,4;69;17,8;71;;;0,0
03/05/2026;02:24:00;1020,9;15,3;69;17,7;71;;;0,0
03/05/2026;02:29:00;1020,9;15,3;69;17,6;71;;;0,0
03/05/2026;02:34:00;1020,8;15,2;69;17,6;71;;;0,0
03/05/2026;02:39:00;1020,8;15,2;69;17,5;71;;;0,0
03/05/2026;02:44:00;1020,7;15,1;69;17,4;71;;;0,0
03/05/2026;02:49:00;1020,6;15,1;69;17,4;71;;;0,0
03/05/2026;02:54:00;1020,7;15,1;69;17,4;71;;;0,0
03/05/2026;02:59:00;1020,7;15,0;69;17,3;71;;;0,0
03/05/2026;03:04:00;1020,7;15,0;69;17,3;71;;;0,0
03/05/2026;03:09:00;1020,7;15,0;69;17,2;71;;;0,0
03/05/2026;03:14:00;1020,7;14,9;69;17,1;71;;;0,0
03/05/2026;03:19:00;1020,8;14,8;69;17,1;71;;;0,0
03/05/2026;03:24:00;1020,8;14,7;69;17,1;71;;;0,0
03/05/2026;03:29:00;1020,8;14,6;69;17,0;71;;;0,0
03/05/2026;03:34:00;1020,8;14,6;69;16,9;71;;;0,0
03/05/2026;03:39:00;1020,7;14,6;70;16,8;71;;;0,0
03/05/2026;03:44:00;1020,7;14,5;70;16,8;71;;;0,0
03/05/2026;03:49:00;1020,8;14,4;69;16,7;71;;;0,0
03/05/2026;03:54:00;1020,8;14,5;70;16,6;71;;;0,0
03/05/2026;03:59:00;1020,8;14,4;70;16,6;71;;;0,0
03/05/2026;04:04:00;1020,7;14,3;69;16,5;71;;;0,0
03/05/2026;04:09:00;1020,7;14,3;68;16,5;71;;;0,0
03/05/2026;04:14:00;1020,8;14,5;65;16,4;71;;;0,0
03/05/2026;04:19:00;1020,8;14,7;63;16,4;71;;;0,0
03/05/2026;04:24:00;1020,8;14,9;61;16,5;71;;;0,0
03/05/2026;04:29:00;1020,9;15,0;62;16,5;71;;;0,0
03/05/2026;04:34:00;1021,0;15,1;63;16,5;71;;;0,0
03/05/2026;04:39:00;1021,0;15,1;64;16,5;71;;;0,0
03/05/2026;04:44:00;1021,0;15,1;63;16,5;71;;;0,0
03/05/2026;04:49:00;1021,0;15,1;63;16,5;71;;;0,0
03/05/2026;04:54:00;1021,1;15,2;63;16,5;71;;;0,0
03/05/2026;04:59:00;1021,1;15,2;63;16,5;71;;;0,0
03/05/2026;05:04:00;1021,1;15,2;63;16,5;71;;;0,0
03/05/2026;05:09:00;1021,1;15,1;63;16,5;71;;;0,0
03/05/2026;05:14:00;1021,2;15,1;63;16,4;71;;;0,0
03/05/2026;05:19:00;1021,2;15,1;62;16,4;71;;;0,0
03/05/2026;05:24:00;1021,3;15,1;62;16,4;70;;;0,0
03/05/2026;05:29:00;1021,3;15,1;62;16,3;70;;;0,0
03/05/2026;05:34:00;1021,4;15,0;62;16,3;70;;;0,0
03/05/2026;05:39:00;1021,4;15,0;61;16,2;70;;;0,0
03/05/2026;05:44:00;1021,5;15,0;61;16,1;70;;;0,0
03/05/2026;05:49:00;1021,5;15,0;61;16,1;70;;;0,0
03/05/2026;05:54:00;1021,6;15,0;60;16,0;70;;;0,0
03/05/2026;05:59:00;1021,7;15,0;60;16,0;70;;;0,0
03/05/2026;06:04:00;1021,7;15,0;60;16,0;70;;;0,0
03/05/2026;06:09:00;1021,7;15,0;60;15,9;70;;;0,0
03/05/2026;06:14:00;1021,7;14,9;60;15,9;70;;;0,0
03/05/2026;06:19:00;1021,7;14,9;60;15,8;70;;;0,0
03/05/2026;06:24:00;1021,8;15,0;60;15,8;70;;;0,0
03/05/2026;06:29:00;1021,8;15,0;60;15,8;70;;;0,0
03/05/2026;06:34:00;1021,9;15,0;59;15,7;70;;;0,0
03/05/2026;06:39:00;1022,1;15,0;59;15,7;70;;;0,0
03/05/2026;06:44:00;1022,1;15,0;59;15,7;70;;;0,0
03/05/2026;06:49:00;1022,1;15,0;59;15,7;70;;;0,0
03/05/2026;06:54:00;1022,2;15,0;58;15,7;70;;;0,0
03/05/2026;06:59:00;1022,3;15,1;59;15,7;70;;;0,0
03/05/2026;07:04:00;1022,4;15,1;59;15,7;70;;;0,0
03/05/2026;07:09:00;1022,4;15,1;58;15,7;70;;;0,0
03/05/2026;07:14:00;1022,5;15,1;59;15,7;70;;;0,0
03/05/2026;07:19:00;1022,5;15,2;58;15,7;70;;;0,0
03/05/2026;07:24:00;1022,6;15,2;58;15,7;70;;;0,0
03/05/2026;07:29:00;1022,6;15,2;59;15,7;70;;;0,0
03/05/2026;07:34:00;1022,7;15,3;59;15,7;70;;;0,0
03/05/2026;07:39:00;1022,8;15,4;59;15,7;70;;;0,0
03/05/2026;07:44:00;1022,8;15,4;59;15,8;70;;;0,0
03/05/2026;07:49:00;1022,9;15,5;60;15,8;70;;;0,0
03/05/2026;07:54:00;1022,9;15,5;59;15,8;70;;;0,0
03/05/2026;07:59:00;1022,9;15,8;58;15,8;70;;;0,0
03/05/2026;08:04:00;1023,0;16,1;58;15,9;70;;;0,0
03/05/2026;08:09:00;1023,0;16,4;58;16,0;70;;;0,0
03/05/2026;08:14:00;1023,1;16,6;58;16,0;70;;;0,0
03/05/2026;08:19:00;1023,1;16,7;57;16,1;70;;;0,0
03/05/2026;08:24:00;1023,1;16,7;57;16,2;70;;;0,0
03/05/2026;08:29:00;1023,1;16,8;58;16,3;70;;;0,0
03/05/2026;08:34:00;1023,3;16,9;58;16,4;70;;;0,0
03/05/2026;08:39:00;1023,3;17,0;58;16,5;70;;;0,0
03/05/2026;08:44:00;1023,4;17,3;58;16,6;70;;;0,0
03/05/2026;08:49:00;1023,4;17,5;57;16,7;70;;;0,0
03/05/2026;08:54:00;1023,4;17,6;58;16,8;70;;;0,0
03/05/2026;08:59:00;1023,5;17,6;57;16,9;70;;;0,0
03/05/2026;09:04:00;1023,6;17,6;57;17,0;70;;;0,0
03/05/2026;09:09:00;1023,6;17,8;58;17,1;70;;;0,0
03/05/2026;09:14:00;1023,7;18,0;56;17,1;70;;;0,0
03/05/2026;09:19:00;1023,8;18,2;57;17,3;70;;;0,0
03/05/2026;09:24:00;1023,9;18,2;56;17,4;70;;;0,0
03/05/2026;09:29:00;1023,9;18,2;56;17,5;70;;;0,0
03/05/2026;09:34:00;1023,9;18,3;56;17,7;70;;;0,0
03/05/2026;09:39:00;1024,0;18,4;57;17,8;70;;;0,0
03/05/2026;09:44:00;1024,0;18,4;55;17,9;69;;;0,0
03/05/2026;09:49:00;1024,0;18,6;56;18,1;69;;;0,0
03/05/2026;09:54:00;1024,0;18,6;56;18,2;69;;;0,0
03/05/2026;09:59:00;1024,0;18,8;56;18,3;69;;;0,0
03/05/2026;10:04:00;1024,0;18,8;55;18,4;69;;;0,0
03/05/2026;10:09:00;1024,0;18,8;55;18,6;69;;;0,0
03/05/2026;10:14:00;1024,0;18,9;56;18,7;69;;;0,0
03/05/2026;10:19:00;1023,9;19,1;55;18,8;69;;;0,0
03/05/2026;10:24:00;1023,9;19,2;55;18,9;69;;;0,0
03/05/2026;10:29:00;1023,9;19,2;55;19,0;69;;;0,0
03/05/2026;10:34:00;1023,9;19,3;55;19,2;69;;;0,0
03/05/2026;10:39:00;1023,9;19,2;54;19,3;68;;;0,0
03/05/2026;10:44:00;1023,8;19,3;55;19,3;68;;;0,0
03/05/2026;10:49:00;1023,8;19,4;54;19,4;68;;;0,0
03/05/2026;10:54:00;1023,8;19,1;54;19,5;68;;;0,0
03/05/2026;10:59:00;1023,8;19,3;55;19,6;68;;;0,0
03/05/2026;11:04:00;1023,8;19,6;54;19,7;68;;;0,0
03/05/2026;11:09:00;1023,8;19,9;54;19,8;68;;;0,0
03/05/2026;11:14:00;1023,8;20,1;54;19,9;68;;;0,0
03/05/2026;11:19:00;1023,8;20,0;53;20,1;68;;;0,0
03/05/2026;11:24:00;1023,7;19,8;53;20,2;68;;;0,0
03/05/2026;11:29:00;1023,6;19,9;53;20,3;68;;;0,0
03/05/2026;11:34:00;1023,5;20,0;54;20,4;68;;;0,0
03/05/2026;11:39:00;1023,5;20,2;53;20,4;68;;;0,0
03/05/2026;11:44:00;1023,5;20,2;52;20,6;68;;;0,0
03/05/2026;11:49:00;1023,4;20,2;53;20,6;68;;;0,0
03/05/2026;11:54:00;1023,2;20,4;53;20,7;68;;;0,0
03/05/2026;11:59:00;1023,2;20,5;53;20,9;68;;;0,0
03/05/2026;12:04:00;1023,2;20,7;51;21,0;68;;;0,0
03/05/2026;12:09:00;1023,1;20,7;51;21,2;68;;;0,0
03/05/2026;12:14:00;1023,1;20,6;51;21,3;68;;;0,0
03/05/2026;12:19:00;1023,0;20,5;51;21,4;68;;;0,0
03/05/2026;12:24:00;1023,0;20,5;51;21,5;68;;;0,0
03/05/2026;12:29:00;1022,9;20,5;51;21,5;68;;;0,0
03/05/2026;12:34:00;1022,8;20,7;51;21,6;68;;;0,0
03/05/2026;12:39:00;1022,7;21,0;51;21,7;68;;;0,0
03/05/2026;12:44:00;1022,6;21,0;50;21,8;68;;;0,0
03/05/2026;12:49:00;1022,6;20,8;50;22,0;68;;;0,0
03/05/2026;12:54:00;1022,5;20,8;50;22,1;68;;;0,0
03/05/2026;12:59:00;1022,5;21,2;51;22,2;68;;;0,0
03/05/2026;13:04:00;1022,4;21,2;50;22,3;68;;;0,0
03/05/2026;13:09:00;1022,4;21,1;49;22,4;68;;;0,0
03/05/2026;13:14:00;1022,3;20,9;49;22,5;68;;;0,0
03/05/2026;13:19:00;1022,3;20,9;49;22,6;67;;;0,0
03/05/2026;13:24:00;1022,1;20,9;50;22,6;67;;;0,0
03/05/2026;13:29:00;1022,0;20,9;51;22,7;67;;;0,0
03/05/2026;13:34:00;1022,0;21,1;50;22,8;67;;;0,0
03/05/2026;13:39:00;1021,9;21,1;50;22,9;67;;;0,0
03/05/2026;13:44:00;1021,9;21,0;49;22,9;67;;;0,0
03/05/2026;13:49:00;1021,8;20,9;50;23,0;68;;;0,0
03/05/2026;13:54:00;1021,8;21,0;49;23,1;68;;;0,0
03/05/2026;13:59:00;1021,7;21,1;49;23,2;68;;;0,0
03/05/2026;14:04:00;1021,6;20,9;50;23,3;68;;;0,0
03/05/2026;14:09:00;1021,6;21,0;50;23,4;68;;;0,0
03/05/2026;14:14:00;1021,6;21,2;50;23,5;68;;;0,0
03/05/2026;14:19:00;1021,5;21,3;50;23,6;68;;;0,0
03/05/2026;14:24:00;1021,5;21,2;50;23,7;68;;;0,0
03/05/2026;14:29:00;1021,4;21,0;50;23,7;67;;;0,0
03/05/2026;14:34:00;1021,4;21,1;49;23,8;67;;;0,0
03/05/2026;14:39:00;1021,4;20,9;50;23,8;67;;;0,0
03/05/2026;14:44:00;1021,3;21,1;50;23,8;68;;;0,0
03/05/2026;14:49:00;1021,3;21,4;51;23,9;68;;;0,0
03/05/2026;14:54:00;1021,3;21,7;53;23,9;68;;;0,0
03/05/2026;14:59:00;1021,3;21,6;53;24,0;67;;;0,0
03/05/2026;15:04:00;1021,4;21,7;52;24,1;67;;;0,0
03/05/2026;15:09:00;1021,4;21,8;53;24,2;67;;;0,0
03/05/2026;15:14:00;1021,4;21,5;54;24,3;67;;;0,0
03/05/2026;15:19:00;1021,4;21,3;54;24,3;67;;;0,0
03/05/2026;15:24:00;1021,4;21,1;54;24,3;67;;;0,0
03/05/2026;15:29:00;1021,4;21,4;54;24,3;67;;;0,0
03/05/2026;15:34:00;1021,4;21,5;53;24,3;66;;;0,0
03/05/2026;15:39:00;1021,3;21,6;54;24,3;66;;;0,0
03/05/2026;15:44:00;1021,3;21,5;53;24,3;67;;;0,0
03/05/2026;15:49:00;1021,3;21,7;52;24,3;67;;;0,0
03/05/2026;15:54:00;1021,3;21,8;52;24,3;67;;;0,0
03/05/2026;15:59:00;1021,2;21,9;53;24,4;67;;;0,0
03/05/2026;16:04:00;1021,2;21,8;51;24,4;67;;;0,0
03/05/2026;16:09:00;1021,1;21,7;51;24,3;67;;;0,0
03/05/2026;16:14:00;1021,1;21,3;51;24,3;67;;;0,0
03/05/2026;16:19:00;1021,0;21,1;52;24,2;67;;;0,0
03/05/2026;16:24:00;1021,0;21,1;51;24,1;67;;;0,0
03/05/2026;16:29:00;1021,0;21,2;52;24,0;67;;;0,0
03/05/2026;16:34:00;1021,0;21,2;52;23,9;67;;;0,0
03/05/2026;16:39:00;1021,1;21,5;50;23,8;68;;;0,0
03/05/2026;16:44:00;1021,1;21,7;50;23,7;68;;;0,0
03/05/2026;16:49:00;1021,1;21,7;51;23,6;68;;;0,0
03/05/2026;16:54:00;1021,0;21,6;53;23,5;68;;;0,0
03/05/2026;16:59:00;1021,0;21,6;51;23,4;68;;;0,0
03/05/2026;17:04:00;1021,0;21,2;54;23,2;68;;;0,0
03/05/2026;17:09:00;1021,0;21,1;55;23,1;68;;;0,0
03/05/2026;17:14:00;1021,0;20,8;56;22,9;68;;;0,0
03/05/2026;17:19:00;1021,1;20,6;56;22,7;68;;;0,0
03/05/2026;17:24:00;1021,1;20,2;57;22,5;68;;;0,0
03/05/2026;17:29:00;1021,1;19,9;58;22,3;68;;;0,0
03/05/2026;17:34:00;1021,0;19,6;58;22,1;68;;;0,0
03/05/2026;17:39:00;1021,0;19,2;60;21,8;68;;;0,0
03/05/2026;17:44:00;1021,0;18,8;62;21,6;69;;;0,0
03/05/2026;17:49:00;1021,0;18,5;63;21,3;69;;;0,0
03/05/2026;17:54:00;1021,0;18,3;63;21,1;69;;;0,0
03/05/2026;17:59:00;1021,0;18,2;63;20,9;69;;;0,0
03/05/2026;18:04:00;1021,1;18,1;64;20,7;69;;;0,0
03/05/2026;18:09:00;1021,1;18,0;65;20,5;69;;;0,0
03/05/2026;18:14:00;1021,2;17,9;65;20,4;69;;;0,0
03/05/2026;18:19:00;1021,2;17,7;66;20,2;69;;;0,0
03/05/2026;18:24:00;1021,2;17,7;66;20,1;69;;;0,0
03/05/2026;18:29:00;1021,3;17,6;67;19,9;69;;;0,0
03/05/2026;18:34:00;1021,3;17,6;67;19,8;69;;;0,0
03/05/2026;18:39:00;1021,3;17,5;68;19,7;69;;;0,0
03/05/2026;18:44:00;1021,3;17,3;68;19,6;69;;;0,0
03/05/2026;18:49:00;1021,3;17,2;69;19,4;69;;;0,0
03/05/2026;18:54:00;1021,3;17,2;69;19,3;69;;;0,0
03/05/2026;18:59:00;1021,4;17,1;69;19,2;69;;;0,0
03/05/2026;19:04:00;1021,4;16,9;70;19,1;69;;;0,0
03/05/2026;19:09:00;1021,4;16,7;70;19,0;69;;;0,0
03/05/2026;19:14:00;1021,4;16,6;70;18,8;69;;;0,0
03/05/2026;19:19:00;1021,5;16,5;71;18,7;69;;;0,0
03/05/2026;19:24:00;1021,5;16,4;71;18,5;69;;;0,0
03/05/2026;19:29:00;1021,6;16,3;71;18,4;69;;;0,0
03/05/2026;19:34:00;1021,5;16,1;72;18,3;69;;;0,0
03/05/2026;19:39:00;1021,5;16,1;72;18,2;69;;;0,0
03/05/2026;19:44:00;1021,5;15,9;72;18,1;69;;;0,0
03/05/2026;19:49:00;1021,5;15,8;72;18,0;69;;;0,0
03/05/2026;19:54:00;1021,5;15,6;73;17,9;69;;;0,0
03/05/2026;19:59:00;1021,5;15,4;74;17,7;69;;;0,0
03/05/2026;20:04:00;1021,4;15,4;74;17,6;69;;;0,0
03/05/2026;20:09:00;1021,5;15,2;74;17,5;69;;;0,0
03/05/2026;20:14:00;1021,5;15,1;74;17,4;69;;;0,0
03/05/2026;20:19:00;1021,6;15,1;74;17,3;69;;;0,0
03/05/2026;20:24:00;1021,6;14,9;74;17,2;69;;;0,0
03/05/2026;20:29:00;1021,6;14,8;74;17,1;69;;;0,0
03/05/2026;20:34:00;1021,5;14,7;75;17,0;69;;;0,0
03/05/2026;20:39:00;1021,5;14,6;75;16,9;69;;;0,0
03/05/2026;20:44:00;1021,4;14,4;75;16,8;69;;;0,0
03/05/2026;20:49:00;1021,5;14,3;76;16,8;69;;;0,0
03/05/2026;20:54:00;1021,5;14,3;76;16,7;69;;;0,0
03/05/2026;20:59:00;1021,4;14,2;76;16,6;69;;;0,0
03/05/2026;21:04:00;1021,4;14,2;76;16,6;69;;;0,0
03/05/2026;21:09:00;1021,3;14,0;76;16,5;69;;;0,0
03/05/2026;21:14:00;1021,3;13,9;76;16,4;69;;;0,0
03/05/2026;21:19:00;1021,4;13,8;77;16,4;68;;;0,0
03/05/2026;21:24:00;1021,5;13,7;77;16,3;68;;;0,0
03/05/2026;21:29:00;1021,5;13,6;76;16,3;68;;;0,0
03/05/2026;21:34:00;1021,4;13,6;76;16,2;68;;;0,0
03/05/2026;21:39:00;1021,4;13,5;75;16,1;68;;;0,0
03/05/2026;21:44:00;1021,5;13,5;75;16,1;68;;;0,0
03/05/2026;21:49:00;1021,5;13,4;75;16,0;68;;;0,0
03/05/2026;21:54:00;1021,5;13,3;75;16,0;68;;;0,0
03/05/2026;21:59:00;1021,5;13,2;75;15,9;68;;;0,0
03/05/2026;22:04:00;1021,4;13,1;76;15,8;68;;;0,0
03/05/2026;22:09:00;1021,4;13,1;76;15,8;68;;;0,0
03/05/2026;22:14:00;1021,3;13,1;76;15,7;68;;;0,0
03/05/2026;22:19:00;1021,3;13,2;76;15,7;68;;;0,0
03/05/2026;22:24:00;1021,3;13,1;76;15,6;68;;;0,0
03/05/2026;22:29:00;1021,3;13,2;75;15,5;68;;;0,0
03/05/2026;22:34:00;1021,3;13,2;75;15,5;68;;;0,0
03/05/2026;22:39:00;1021,2;13,2;75;15,5;68;;;0,0
03/05/2026;22:44:00;1021,2;13,1;76;15,5;68;;;0,0
03/05/2026;22:49:00;1021,2;13,0;77;15,5;68;;;0,0
03/05/2026;22:54:00;1021,2;12,8;77;15,4;68;;;0,0
03/05/2026;22:59:00;1021,1;12,8;77;15,4;68;;;0,0
03/05/2026;23:04:00;1021,1;12,7;78;15,3;68;;;0,0
03/05/2026;23:09:00;1021,1;12,7;78;15,3;68;;;0,0
03/05/2026;23:14:00;1021,1;12,6;79;15,2;68;;;0,0
03/05/2026;23:19:00;1021,1;12,5;79;15,2;68;;;0,0
03/05/2026;23:24:00;1021,1;12,4;80;15,1;68;;;0,0
03/05/2026;23:29:00;1021,0;12,3;80;15,1;68;;;0,0
03/05/2026;23:34:00;1020,9;12,3;81;15,0;68;;;0,0
03/05/2026;23:39:00;1020,8;12,4;81;15,0;68;;;0,0
03/05/2026;23:44:00;1020,7;12,4;81;15,0;68;;;0,0
03/05/2026;23:49:00;1020,5;12,4;81;14,9;68;;;0,0
03/05/2026;23:54:00;1020,3;12,4;82;14,9;68;;;0,0
03/05/2026;23:59:00;1020,3;12,4;83;14,9;68;;;0,0
